STARLINK-11226, 60907

Orbit data source: Space-Track

STARLINK-11226, 60907 is a payload satellite owned by SpaceX/Seattle (US) in LEO that was launched on Sat, 31 Aug 2024 UTC via an FALCON 9 launch vehicle from the Air Force Eastern Test Range (AFETR). Payload-class satellites include a variety of spacecraft equipped with specific instruments for various scientific and technological missions. These include communications satellites like Starlink; space stations such as the ISS; scientific satellites like the Hubble; Earth observation satellites from companies like Planet Labs, Umbra, and HawkEye 360; GPS; miniature CubeSats for education and research; and military/defense satellites.

Loading next visibility...
Identifier
60907, 2024-154E
Orbit
LEO
Country
Flag of USUS
Related business
Manufacturer
SpaceX/Seattle
Mission
Operational Commercial Communications
Bus & Motor
STARLINK V2MD, Unknown motor
Mass
960 kg wet, ~910 kg dry
Launch date (UTC)
2024-08-31 (2 years ago)
Launch vehicle
FALCON 9
Launch site
Air Force Eastern Test Range (AFETR)
Object type
Payload
Rocket body
Debris
Shape & HBR
Box + 2 Pan, 18.1 m
Radar Cross Section
36.964 m², Large (>1 m²)

Expand to show TLE details & history
Last TLE update: 2 days ago

TLE from 2 days ago
0 STARLINK-11226
1 60907U 24154E   26174.71134951  .00004145  00000-0  39086-4 0  9993
2 60907  53.1597 328.8126 0000886  33.8478 326.2596 15.69689202105163
Epoch: 2026-06-23T17:04Z
TLE epoch observation values (Epoch: 2026-06-23T17:04:20.597Z)
Latitude
-0.00006°
Longitude
160.84774°
Altitude
360.205 km
Speed
7.695 km/s
True Right ascension
21h 55m 15s
True Declination
0° 00' 00"
Sunlit
Object was in full shadow at epoch
Visualization orbit readout
Latitude
Unknown
Longitude
Unknown
Altitude
Unknown
Speed
Unknown
Apparent Right ascension
Unknown
Apparent Declination
Unknown
Sunlit
N/A
Visualization observer readout
Local Sidereal Time
16:57:20
Azimuth
Unknown
Elevation
Unknown
Doppler factor
Unknown
Orbital elements
Apogee altitude
360.644 km
Perigee altitude
359.45 km
Semi-major axis
6,738.184 km
Eccentricity
0.00009
Inclination
53.1597°
RAAN
328.8126°
Arg. of periapsis
33.8478°
True anomaly
326.25396°
Mean anomaly
326.2596°
Eccentric anomaly
326.25678°
Mean motion
3.924 °/min
Orbital period
91.74 mins
BSTAR
0.000039086
Loading maneuver chart data...
Computing Atmospheric mass density...
Loading historical data...
Loading historical data...
Loading historical data...
Loading historical data...
Loading historical data...
Loading historical data...
Loading historical data...

Documentation

Showing up to 5 results
|